When you browse on this site, cookies collect data to enhance your experience and personalize the content and advertising you see.
Visit our Privacy Policy to learn more. By continuing to use the site, you agree to this use of cookies and data.
  • In Österreich
  • Länderverzeichnis
  • Für 7 Tage
  • Wassertemperatur
  • Wetterkarte
  • News
  • Widgets
  • user-avatar
    Anmelden

    Stündliche Wetter Cairns

    Heute, 26 Februar, Mittwoch

    Zeit Temperatur Niederschläge Wind Luftdruck Luftfeuchtigkeit
    00:00 +28°C° 0.1 mm 1 m/S 756 mmHg 92%
    01:00 +26°C° 0.1 mm 0 m/S 756 mmHg 92%
    02:00 +28°C° 0.2 mm 1 m/S 756 mmHg 93%
    03:00 +27°C° 0.2 mm 1 m/S 755 mmHg 94%
    04:00 +27°C° 0 mm 1 m/S 755 mmHg 92%
    05:00 +27°C° 0.2 mm 1 m/S 756 mmHg 91%
    06:00 +27°C° 0.2 mm 1 m/S 756 mmHg 91%
    07:00 +28°C° 0.2 mm 1 m/S 756 mmHg 90%
    08:00 +29°C° 0.1 mm 1 m/S 756 mmHg 85%
    09:00 +30°C° 0.1 mm 1 m/S 757 mmHg 81%
    10:00 +32°C° 0 mm 0 m/S 757 mmHg 67%
    11:00 +34°C° 0.4 mm 1 m/S 756 mmHg 66%
    12:00 +34°C° 0.4 mm 1 m/S 756 mmHg 66%
    13:00 +36°C° 0.4 mm 2 m/S 755 mmHg 65%
    14:00 +35°C° 0.6 mm 2 m/S 755 mmHg 68%
    15:00 +34°C° 0.6 mm 2 m/S 754 mmHg 71%
    16:00 +32°C° 0 mm 2 m/S 754 mmHg 78%
    17:00 +31°C° 0.5 mm 2 m/S 754 mmHg 83%
    18:00 +30°C° 0.5 mm 1 m/S 755 mmHg 87%
    19:00 +29°C° 0.5 mm 1 m/S 755 mmHg 91%
    20:00 +28°C° 0.4 mm 1 m/S 755 mmHg 92%
    21:00 +28°C° 0.4 mm 1 m/S 756 mmHg 93%
    22:00 +28°C° 0.4 mm 1 m/S 756 mmHg 93%
    23:00 +28°C° 0.7 mm 1 m/S 756 mmHg 94%

    Morgen, 27 Februar, Donnerstag

    Zeit Temperatur Niederschläge Wind Luftdruck Luftfeuchtigkeit
    00:00 +27°C° 0.7 mm 1 m/S 756 mmHg 95%
    01:00 +27°C° 0.7 mm 2 m/S 755 mmHg 96%
    02:00 +27°C° 0 mm 1 m/S 755 mmHg 95%
    03:00 +27°C° 0 mm 1 m/S 755 mmHg 94%
    04:00 +27°C° 0 mm 1 m/S 754 mmHg 93%
    05:00 +27°C° 0.4 mm 1 m/S 755 mmHg 94%
    06:00 +27°C° 0.4 mm 1 m/S 755 mmHg 94%
    07:00 +27°C° 0.4 mm 1 m/S 756 mmHg 94%
    08:00 +30°C° 0.1 mm 1 m/S 756 mmHg 83%
    09:00 +33°C° 0.1 mm 1 m/S 756 mmHg 71%
    10:00 +35°C° 0.1 mm 1 m/S 756 mmHg 59%
    11:00 +37°C° 0 mm 2 m/S 755 mmHg 58%
    12:00 +37°C° 0 mm 2 m/S 754 mmHg 56%
    13:00 +38°C° 0 mm 3 m/S 754 mmHg 55%
    14:00 +36°C° 1.9 mm 3 m/S 753 mmHg 67%
    15:00 +32°C° 1.9 mm 2 m/S 753 mmHg 80%
    16:00 +30°C° 1.9 mm 2 m/S 752 mmHg 93%
    17:00 +29°C° 2 mm 2 m/S 753 mmHg 94%
    18:00 +29°C° 2 mm 2 m/S 753 mmHg 95%
    19:00 +28°C° 2 mm 2 m/S 754 mmHg 96%
    20:00 +28°C° 3.1 mm 2 m/S 754 mmHg 97%
    21:00 +28°C° 3.1 mm 2 m/S 755 mmHg 97%
    22:00 +27°C° 3.1 mm 1 m/S 756 mmHg 98%
    23:00 +27°C° 0.2 mm 2 m/S 755 mmHg 97%

    übermorgen, 28 Februar, Freitag

    Zeit Temperatur Niederschläge Wind Luftdruck Luftfeuchtigkeit
    00:00 +27°C° 0.2 mm 2 m/S 755 mmHg 97%
    01:00 +27°C° 0.2 mm 2 m/S 754 mmHg 97%
    02:00 +27°C° 0.3 mm 2 m/S 754 mmHg 97%
    03:00 +27°C° 0.3 mm 2 m/S 754 mmHg 96%
    04:00 +27°C° 0.3 mm 2 m/S 753 mmHg 96%
    05:00 +27°C° 0 mm 2 m/S 754 mmHg 96%
    06:00 +27°C° 0 mm 2 m/S 754 mmHg 95%
    07:00 +27°C° 0 mm 2 m/S 754 mmHg 95%
    08:00 +29°C° 0.5 mm 2 m/S 755 mmHg 90%
    09:00 +31°C° 0.5 mm 2 m/S 755 mmHg 85%
    10:00 +34°C° 0.5 mm 2 m/S 755 mmHg 80%
    11:00 +34°C° 0.5 mm 1 m/S 755 mmHg 75%
    12:00 +35°C° 0.5 mm 1 m/S 754 mmHg 70%
    13:00 +36°C° 0.5 mm 1 m/S 754 mmHg 65%
    14:00 +35°C° 1 mm 1 m/S 753 mmHg 69%
    15:00 +34°C° 1 mm 1 m/S 753 mmHg 74%
    16:00 +33°C° 1 mm 1 m/S 752 mmHg 79%
    17:00 +32°C° 0.3 mm 1 m/S 753 mmHg 83%
    18:00 +30°C° 0.3 mm 1 m/S 753 mmHg 87%
    19:00 +29°C° 0.3 mm 1 m/S 753 mmHg 91%
    20:00 +28°C° 0 mm 1 m/S 754 mmHg 91%
    21:00 +28°C° 0 mm 1 m/S 754 mmHg 92%
    22:00 +27°C° 0 mm 1 m/S 755 mmHg 93%
    23:00 +27°C° 0 mm 1 m/S 755 mmHg 92%

    29 Februar, Samstag

    Zeit Temperatur Niederschläge Wind Luftdruck Luftfeuchtigkeit
    00:00 +27°C° 0 mm 1 m/S 754 mmHg 92%
    01:00 +27°C° 0 mm 1 m/S 754 mmHg 91%
    02:00 +26°C° 0 mm 1 m/S 754 mmHg 90%
    03:00 +26°C° 0 mm 1 m/S 754 mmHg 88%
    04:00 +26°C° 0 mm 1 m/S 754 mmHg 87%
    05:00 +26°C° 0 mm 1 m/S 754 mmHg 86%
    06:00 +26°C° 0 mm 2 m/S 755 mmHg 84%
    07:00 +26°C° 0 mm 2 m/S 755 mmHg 83%
    08:00 +29°C° 0 mm 1 m/S 755 mmHg 72%
    09:00 +32°C° 0 mm 1 m/S 756 mmHg 61%
    10:00 +35°C° 0 mm 1 m/S 756 mmHg 50%
    11:00 +35°C° 0 mm 1 m/S 755 mmHg 48%
    12:00 +37°C° 0 mm 2 m/S 755 mmHg 45%
    13:00 +37°C° 0 mm 2 m/S 755 mmHg 43%
    14:00 +37°C° 0 mm 3 m/S 754 mmHg 46%
    15:00 +36°C° 0 mm 3 m/S 754 mmHg 48%
    16:00 +36°C° 0 mm 3 m/S 753 mmHg 51%
    17:00 +34°C° 0 mm 3 m/S 754 mmHg 59%
    18:00 +31°C° 0 mm 2 m/S 754 mmHg 66%
    19:00 +29°C° 0 mm 2 m/S 755 mmHg 74%
    20:00 +28°C° 0 mm 2 m/S 755 mmHg 76%
    21:00 +28°C° 0 mm 2 m/S 756 mmHg 78%
    22:00 +27°C° 0 mm 1 m/S 756 mmHg 79%
    23:00 +27°C° 0 mm 1 m/S 756 mmHg 79%

    1 März, Sonntag

    Zeit Temperatur Niederschläge Wind Luftdruck Luftfeuchtigkeit
    00:00 +27°C° 0 mm 1 m/S 755 mmHg 79%
    01:00 +26°C° 0 mm 1 m/S 755 mmHg 79%
    02:00 +26°C° 0 mm 1 m/S 755 mmHg 78%
    03:00 +26°C° 0 mm 1 m/S 754 mmHg 78%
    04:00 +26°C° 0 mm 1 m/S 754 mmHg 78%
    05:00 +26°C° 0 mm 1 m/S 755 mmHg 78%
    06:00 +26°C° 0 mm 1 m/S 755 mmHg 78%
    07:00 +26°C° 0 mm 1 m/S 756 mmHg 79%
    08:00 +29°C° 0 mm 1 m/S 756 mmHg 71%
    09:00 +31°C° 0 mm 1 m/S 756 mmHg 64%
    10:00 +34°C° 0 mm 1 m/S 757 mmHg 57%
    11:00 +35°C° 0 mm 2 m/S 756 mmHg 54%
    12:00 +36°C° 0 mm 2 m/S 755 mmHg 51%
    13:00 +37°C° 0 mm 2 m/S 755 mmHg 48%
    14:00 +36°C° 0.1 mm 2 m/S 755 mmHg 53%
    15:00 +35°C° 0.1 mm 2 m/S 754 mmHg 58%
    16:00 +34°C° 0.1 mm 2 m/S 754 mmHg 63%
    17:00 +31°C° 0.1 mm 2 m/S 754 mmHg 71%
    18:00 +30°C° 0.1 mm 1 m/S 754 mmHg 79%
    19:00 +28°C° 0.1 mm 1 m/S 755 mmHg 86%
    20:00 +27°C° 0 mm 1 m/S 755 mmHg 88%
    21:00 +27°C° 0 mm 1 m/S 755 mmHg 90%
    22:00 +26°C° 0 mm 1 m/S 756 mmHg 91%
    23:00 +26°C° 0 mm 1 m/S 755 mmHg 92%

    2 März, Montag

    Zeit Temperatur Niederschläge Wind Luftdruck Luftfeuchtigkeit
    00:00 +26°C° 0 mm 1 m/S 755 mmHg 92%
    01:00 +26°C° 0 mm 1 m/S 755 mmHg 93%
    02:00 +25°C° 0 mm 1 m/S 755 mmHg 93%
    03:00 +25°C° 0 mm 2 m/S 755 mmHg 93%
    04:00 +25°C° 0 mm 2 m/S 755 mmHg 93%
    05:00 +25°C° 0 mm 2 m/S 755 mmHg 92%
    06:00 +25°C° 0 mm 2 m/S 755 mmHg 91%
    07:00 +26°C° 0 mm 2 m/S 756 mmHg 90%
    08:00 +28°C° 0 mm 2 m/S 756 mmHg 80%
    09:00 +31°C° 0 mm 2 m/S 756 mmHg 69%
    10:00 +35°C° 0 mm 2 m/S 756 mmHg 59%
    11:00 +34°C° 0.3 mm 2 m/S 756 mmHg 62%
    12:00 +34°C° 0.3 mm 3 m/S 755 mmHg 65%
    13:00 +34°C° 0.3 mm 3 m/S 755 mmHg 68%
    14:00 +33°C° 0.8 mm 3 m/S 754 mmHg 71%
    15:00 +33°C° 0.8 mm 3 m/S 754 mmHg 74%
    16:00 +31°C° 0.8 mm 3 m/S 754 mmHg 77%
    17:00 +30°C° 0.6 mm 3 m/S 754 mmHg 82%
    18:00 +29°C° 0.6 mm 3 m/S 754 mmHg 87%
    19:00 +28°C° 0.6 mm 3 m/S 755 mmHg 92%
    20:00 +27°C° 0.5 mm 3 m/S 755 mmHg 93%
    21:00 +27°C° 0.5 mm 3 m/S 756 mmHg 94%
    22:00 +26°C° 0.5 mm 3 m/S 756 mmHg 95%
    23:00 +26°C° 0.1 mm 3 m/S 756 mmHg 95%
    Mehr zeigen